This is the latest recevied weather packets stored in our database for station/object N6SPP. If no packets are shown the sender has not sent any weather packets the latest 1 day(s).
| Time | Temp. | Humidity | Pressure | Rain* | Wind** | Luminosity | Snow |
|---|---|---|---|---|---|---|---|
| 1778053500 | 12.78° C | 82% | 1020.6 hPa | 0 mm | 1.34 m/s, 222° | 0 W/m² | - |
| 1778053198 | 12.78° C | 82% | 1020.3 hPa | 0 mm | 0.89 m/s, 172° | 0 W/m² | - |
| 1778052895 | 12.78° C | 83% | 1020.5 hPa | 0 mm | 0.89 m/s, 214° | 0 W/m² | - |
| 1778052592 | 12.78° C | 82% | 1020.5 hPa | 0 mm | 2.24 m/s, 178° | 0 W/m² | - |
| 1778052289 | 12.78° C | 82% | 1020.5 hPa | 0 mm | 1.79 m/s, 197° | 0 W/m² | - |
| 1778051987 | 12.78° C | 82% | 1020.6 hPa | 0 mm | 1.34 m/s, 209° | 0 W/m² | - |
| 1778051685 | 12.78° C | 82% | 1020.5 hPa | 0 mm | 1.34 m/s, 133° | 0 W/m² | - |
| 1778051382 | 12.78° C | 83% | 1020.5 hPa | 0 mm | 0.89 m/s, 1° | 0 W/m² | - |
| 1778051079 | 12.78° C | 82% | 1020.3 hPa | 0 mm | 0 m/s | 0 W/m² | - |
| 1778050776 | 12.78° C | 82% | 1020.3 hPa | 0 mm | 0.45 m/s, 154° | 0 W/m² | - |
| 1778050474 | 12.78° C | 83% | 1020.6 hPa | 0 mm | 0.89 m/s, 346° | 0 W/m² | - |
| 1778050170 | 12.78° C | 82% | 1020.2 hPa | 0 mm | 0.45 m/s, 80° | 0 W/m² | - |
| 1778049866 | 12.78° C | 82% | 1020.3 hPa | 0 mm | 0 m/s | 0 W/m² | - |
| 1778049563 | 13.33° C | 82% | 1020.2 hPa | 0 mm | 0.45 m/s, 247° | 0 W/m² | - |
| 1778049260 | 13.33° C | 82% | 1020.1 hPa | 0 mm | 1.34 m/s, 260° | 0 W/m² | - |
| 1778048958 | 13.33° C | 82% | 1020.1 hPa | 0 mm | 2.68 m/s, 191° | 0 W/m² | - |
| 1778048657 | 13.33° C | 82% | 1020.3 hPa | 0 mm | 0.89 m/s, 200° | 0 W/m² | - |
| 1778048352 | 13.33° C | 81% | 1020.2 hPa | 0 mm | 0.89 m/s, 173° | 0 W/m² | - |
| 1778048049 | 13.33° C | 81% | 1020 hPa | 0 mm | 0 m/s | 0 W/m² | - |
| 1778047747 | 13.33° C | 81% | 1020.1 hPa | 0 mm | 1.79 m/s, 322° | 0 W/m² | - |
| 1778047444 | 13.33° C | 80% | 1019.9 hPa | 0 mm | 0.45 m/s, 302° | 0 W/m² | - |
| 1778047141 | 13.33° C | 79% | 1020.2 hPa | 0 mm | 0.89 m/s, 207° | 0 W/m² | - |
| 1778046838 | 13.33° C | 79% | 1019.8 hPa | 0 mm | 0.89 m/s, 283° | 0 W/m² | - |
| 1778046535 | 13.33° C | 79% | 1019.8 hPa | 0 mm | 1.79 m/s, 212° | 0 W/m² | - |
| 1778046232 | 13.89° C | 79% | 1019.9 hPa | 0 mm | 0.89 m/s, 138° | 0 W/m² | - |
* Rain latest hour (hover to see other rain measurements)
** Current wind speed in m/s (hover to see current wind gust speed)